| time (UTC) | temp F | wind direction | speed MPH | gust MPH | rain 1hr in | rain 24hr in | rain mn in | humidity % | barometer mb |
| 20260905044539 | 68 | 177 | 1.0 | 3.0 | 0.00 | 0.00 | 0.00 | 39 | 1005.0 |
| 20260905043039 | 69 | 359 | 0.0 | 2.0 | 0.00 | 0.00 | 0.00 | 40 | 1004.9 |
| 20260905041538 | 69 | 151 | 0.0 | 2.0 | 0.00 | 0.00 | 0.00 | 41 | 1004.7 |
| 20260905040048 | 69 | 166 | 0.0 | 2.0 | 0.00 | 0.00 | 0.00 | 43 | 1004.8 |
| 20260905034538 | 70 | 193 | 1.0 | 2.0 | 0.00 | 0.00 | 0.00 | 42 | 1004.6 |
| 20260905033037 | 70 | 207 | 1.0 | 3.0 | 0.00 | 0.00 | 0.00 | 43 | 1004.4 |
| 20260905031537 | 70 | 359 | 1.0 | 3.0 | 0.00 | 0.00 | 0.00 | 44 | 1004.2 |
| 20260905030043 | 70 | 235 | 1.0 | 3.0 | 0.00 | 0.00 | 0.00 | 45 | 1004.1 |
| 20260905024536 | 71 | 208 | 1.0 | 4.0 | 0.00 | 0.00 | 0.00 | 43 | 1003.9 |
| 20260905023036 | 71 | 201 | 1.0 | 3.0 | 0.00 | 0.00 | 0.00 | 42 | 1003.6 |
| 20260905021535 | 72 | 359 | 1.0 | 8.0 | 0.00 | 0.00 | 0.00 | 42 | 1003.5 |
| 20260905020035 | 73 | 359 | 1.0 | 3.0 | 0.00 | 0.00 | 0.00 | 41 | 1003.5 |
| 20260905014534 | 73 | 359 | 1.0 | 4.0 | 0.00 | 0.00 | 0.00 | 42 | 1003.6 |
| 20260905013032 | 74 | 359 | 2.0 | 6.0 | 0.00 | 0.00 | 0.00 | 40 | 1003.4 |
| 20260905011529 | 75 | 216 | 1.0 | 3.0 | 0.00 | 0.00 | 0.00 | 39 | 1003.5 |
| 20260905010040 | 75 | 191 | 1.0 | 3.0 | 0.00 | 0.00 | 0.00 | 37 | 1003.6 |
| 20260905004528 | 76 | 210 | 1.0 | 3.0 | 0.00 | 0.00 | 0.00 | 36 | 1003.7 |
| 20260905003029 | 76 | 190 | 2.0 | 4.0 | 0.00 | 0.00 | 0.00 | 35 | 1003.6 |
| 20260905001528 | 77 | 211 | 2.0 | 7.0 | 0.00 | 0.00 | 0.00 | 33 | 1003.6 |
| 20260905000028 | 77 | 193 | 2.0 | 4.0 | 0.00 | 0.00 | 0.00 | 33 | 1003.5 |
| 20260904234527 | 77 | 208 | 2.0 | 6.0 | 0.00 | 0.00 | 0.00 | 33 | 1003.5 |
| 20260904233028 | 77 | 197 | 2.0 | 5.0 | 0.00 | 0.00 | 0.00 | 32 | 1003.6 |
| 20260904231526 | 78 | 190 | 2.0 | 7.0 | 0.00 | 0.00 | 0.00 | 27 | 1003.6 |
| 20260904230043 | 78 | 211 | 2.0 | 7.0 | 0.00 | 0.00 | 0.00 | 25 | 1003.7 |
| 20260904224529 | 78 | 204 | 2.0 | 6.0 | 0.00 | 0.00 | 0.00 | 25 | 1003.9 |
| 20260904223025 | 78 | 235 | 2.0 | 8.0 | 0.00 | 0.00 | 0.00 | 25 | 1004.2 |
| 20260904221524 | 78 | 193 | 2.0 | 3.0 | 0.00 | 0.00 | 0.00 | 27 | 1004.1 |
| 20260904220023 | 78 | 179 | 1.0 | 3.0 | 0.00 | 0.00 | 0.00 | 27 | 1004.2 |
| 20260904214523 | 78 | 209 | 2.0 | 8.0 | 0.00 | 0.00 | 0.00 | 27 | 1004.2 |
| 20260904213022 | 78 | 213 | 2.0 | 10.0 | 0.00 | 0.00 | 0.00 | 28 | 1004.4 |
| 20260904211521 | 79 | 188 | 1.0 | 4.0 | 0.00 | 0.00 | 0.00 | 27 | 1004.4 |
| 20260904210020 | 79 | 195 | 1.0 | 4.0 | 0.00 | 0.00 | 0.00 | 26 | 1004.5 |
| 20260904204521 | 78 | 220 | 1.0 | 6.0 | 0.00 | 0.00 | 0.00 | 26 | 1004.4 |
| 20260904203017 | 78 | 199 | 1.0 | 6.0 | 0.00 | 0.00 | 0.00 | 25 | 1004.5 |
| 20260904201514 | 78 | 214 | 1.0 | 8.0 | 0.00 | 0.00 | 0.00 | 25 | 1004.5 |
| 20260904200014 | 78 | 203 | 1.0 | 3.0 | 0.00 | 0.00 | 0.00 | 26 | 1004.6 |
| 20260904194514 | 77 | 204 | 2.0 | 7.0 | 0.00 | 0.00 | 0.00 | 25 | 1004.7 |
| 20260904193025 | 77 | 208 | 1.0 | 5.0 | 0.00 | 0.00 | 0.00 | 26 | 1005.0 |
| 20260904191509 | 77 | 187 | 1.0 | 4.0 | 0.00 | 0.00 | 0.00 | 26 | 1005.2 |
| 20260904190015 | 77 | 214 | 1.0 | 3.0 | 0.00 | 0.00 | 0.00 | 25 | 1005.1 |
| 20260904184508 | 77 | 209 | 1.0 | 4.0 | 0.00 | 0.00 | 0.00 | 26 | 1005.4 |
| 20260904183006 | 79 | 147 | 0.0 | 3.0 | 0.00 | 0.00 | 0.00 | 25 | 1005.2 |
| 20260904181502 | 78 | 181 | 1.0 | 6.0 | 0.00 | 0.00 | 0.00 | 24 | 1005.2 |
| 20260904180002 | 77 | 239 | 1.0 | 5.0 | 0.00 | 0.00 | 0.00 | 24 | 1005.3 |
| 20260904174504 | 77 | 205 | 1.0 | 3.0 | 0.00 | 0.00 | 0.00 | 23 | 1005.4 |
| 20260904173103 | 77 | 193 | 0.0 | 2.0 | 0.00 | 0.00 | 0.00 | 21 | 1005.3 |
| 20260904171559 | 76 | 241 | 0.0 | 1.0 | 0.00 | 0.00 | 0.00 | 21 | 1005.3 |
| 20260904170057 | 76 | 210 | 0.0 | 3.0 | 0.00 | 0.00 | 0.00 | 21 | 1005.2 |
| 20260904164556 | 75 | 226 | 0.0 | 2.0 | 0.00 | 0.00 | 0.00 | 20 | 1005.0 |
| 20260904163102 | 75 | 224 | 0.0 | 4.0 | 0.00 | 0.00 | 0.00 | 20 | 1005.0 |
| 20260904161548 | 74 | 237 | 0.0 | 2.0 | 0.00 | 0.00 | 0.00 | 22 | 1004.9 |
| 20260904160053 | 72 | 249 | 0.0 | 2.0 | 0.00 | 0.00 | 0.00 | 27 | 1004.8 |
| 20260904154544 | 71 | 245 | 0.0 | 1.0 | 0.00 | 0.00 | 0.00 | 32 | 1004.8 |
| 20260904153049 | 69 | 239 | 0.0 | 1.0 | 0.00 | 0.00 | 0.00 | 33 | 1004.8 |
| 20260904151535 | 68 | 231 | 0.0 | 2.0 | 0.00 | 0.00 | 0.00 | 37 | 1004.8 |
| 20260904150031 | 66 | 228 | 0.0 | 1.0 | 0.00 | 0.00 | 0.00 | 40 | 1004.8 |
| 20260904144530 | 64 | 359 | 0.0 | 2.0 | 0.00 | 0.00 | 0.00 | 49 | 1004.7 |
| 20260904143028 | 63 | 243 | 0.0 | 2.0 | 0.00 | 0.00 | 0.00 | 52 | 1004.6 |
| 20260904141526 | 62 | 359 | 0.0 | 1.0 | 0.00 | 0.00 | 0.00 | 52 | 1004.4 |
| 20260904140024 | 62 | 237 | 0.0 | 2.0 | 0.00 | 0.00 | 0.00 | 51 | 1004.4 |
| 20260904134529 | 61 | 233 | 0.0 | 1.0 | 0.00 | 0.00 | 0.00 | 51 | 1004.3 |
| 20260904133022 | 61 | 238 | 0.0 | 1.0 | 0.00 | 0.00 | 0.00 | 51 | 1004.1 |
| 20260904131518 | 62 | 262 | 0.0 | 2.0 | 0.00 | 0.00 | 0.00 | 50 | 1004.2 |
| 20260904130036 | 63 | 243 | 0.0 | 2.0 | 0.00 | 0.00 | 0.00 | 47 | 1003.9 |
| 20260904124517 | 63 | 228 | 0.0 | 2.0 | 0.00 | 0.00 | 0.00 | 51 | 1003.7 |
| 20260904123022 | 63 | 231 | 0.0 | 3.0 | 0.00 | 0.00 | 0.00 | 51 | 1003.6 |
| 20260904121514 | 64 | 219 | 0.0 | 3.0 | 0.00 | 0.00 | 0.00 | 50 | 1003.5 |
| 20260904120012 | 64 | 222 | 0.0 | 4.0 | 0.00 | 0.00 | 0.00 | 52 | 1003.5 |
| 20260904114511 | 64 | 236 | 0.0 | 3.0 | 0.00 | 0.00 | 0.00 | 53 | 1003.6 |
| 20260904113010 | 64 | 243 | 0.0 | 2.0 | 0.00 | 0.00 | 0.00 | 50 | 1003.7 |
| 20260904111509 | 64 | 224 | 0.0 | 2.0 | 0.00 | 0.00 | 0.00 | 51 | 1003.7 |
| 20260904110008 | 64 | 212 | 0.0 | 2.0 | 0.00 | 0.00 | 0.00 | 55 | 1003.7 |
| 20260904104519 | 63 | 231 | 0.0 | 1.0 | 0.00 | 0.00 | 0.00 | 57 | 1003.7 |
| 20260904103006 | 64 | 223 | 0.0 | 2.0 | 0.00 | 0.00 | 0.00 | 56 | 1003.8 |
| 20260904101505 | 64 | 217 | 1.0 | 3.0 | 0.00 | 0.00 | 0.00 | 56 | 1003.6 |
| 20260904100004 | 64 | 226 | 1.0 | 2.0 | 0.00 | 0.00 | 0.00 | 57 | 1003.6 |
| 20260904094503 | 64 | 193 | 0.0 | 3.0 | 0.00 | 0.00 | 0.00 | 57 | 1003.6 |
| 20260904093002 | 64 | 198 | 1.0 | 3.0 | 0.00 | 0.00 | 0.00 | 56 | 1003.7 |
| 20260904091600 | 64 | 190 | 1.0 | 2.0 | 0.00 | 0.00 | 0.00 | 55 | 1003.7 |
| 20260904090057 | 64 | 216 | 1.0 | 5.0 | 0.00 | 0.00 | 0.00 | 54 | 1003.8 |
| 20260904084557 | 64 | 218 | 0.0 | 3.0 | 0.00 | 0.00 | 0.00 | 54 | 1003.9 |
| 20260904083056 | 64 | 198 | 1.0 | 3.0 | 0.00 | 0.00 | 0.00 | 55 | 1003.9 |
| 20260904081559 | 64 | 190 | 1.0 | 3.0 | 0.00 | 0.00 | 0.00 | 55 | 1003.9 |
| 20260904080052 | 64 | 219 | 0.0 | 3.0 | 0.00 | 0.00 | 0.00 | 54 | 1004.1 |
| 20260904074549 | 64 | 215 | 1.0 | 2.0 | 0.00 | 0.00 | 0.00 | 53 | 1004.1 |
| 20260904073048 | 64 | 191 | 1.0 | 3.0 | 0.00 | 0.00 | 0.00 | 50 | 1004.1 |
| 20260904071544 | 65 | 189 | 1.0 | 2.0 | 0.00 | 0.00 | 0.00 | 47 | 1004.2 |
| 20260904070042 | 65 | 204 | 0.0 | 3.0 | 0.00 | 0.00 | 0.00 | 45 | 1004.1 |
| 20260904064541 | 65 | 214 | 1.0 | 3.0 | 0.00 | 0.00 | 0.00 | 45 | 1004.0 |
| 20260904063043 | 65 | 212 | 1.0 | 2.0 | 0.00 | 0.00 | 0.00 | 49 | 1003.9 |
| 20260904061545 | 65 | 212 | 0.0 | 2.0 | 0.00 | 0.00 | 0.00 | 55 | 1003.8 |
| 20260904060040 | 65 | 223 | 0.0 | 2.0 | 0.00 | 0.00 | 0.00 | 57 | 1003.7 |
| 20260904054540 | 66 | 218 | 0.0 | 2.0 | 0.00 | 0.00 | 0.00 | 56 | 1003.7 |
| 20260904053039 | 66 | 212 | 1.0 | 3.0 | 0.00 | 0.00 | 0.00 | 55 | 1003.7 |
| 20260904051539 | 67 | 211 | 1.0 | 2.0 | 0.00 | 0.00 | 0.00 | 56 | 1003.6 |
| 20260904050038 | 67 | 210 | 0.0 | 3.0 | 0.00 | 0.00 | 0.00 | 54 | 1003.8 |